| time (UTC) | temp F | wind direction | speed knots | gust knots | rain 1hr in | rain 24hr in | rain mn in | humidity % | barometer mb |
| 20260503225600 | 60 | 258 | 2.6 | 7.0 | 0.00 | 0.06 | 0.00 | 90 | 1012.6 |
| 20260503225501 | 60 | 234 | 1.7 | 7.0 | 0.00 | 0.06 | 0.00 | 90 | 1017.1 |
| 20260503225100 | 60 | 289 | 1.7 | 5.2 | 0.00 | 0.06 | 0.00 | 91 | 1012.5 |
| 20260503225003 | 60 | 278 | 1.7 | 5.2 | 0.00 | 0.06 | 0.00 | 90 | 1016.9 |
| 20260503224600 | 60 | 273 | 1.7 | 3.5 | 0.00 | 0.06 | 0.00 | 91 | 1012.3 |
| 20260503224501 | 60 | 264 | 1.7 | 3.5 | 0.00 | 0.06 | 0.00 | 91 | 1016.8 |
| 20260503224100 | 60 | 284 | 0.9 | 2.6 | 0.00 | 0.06 | 0.00 | 91 | 1012.2 |
| 20260503223601 | 60 | 292 | 0.0 | 1.7 | 0.00 | 0.06 | 0.00 | 90 | 1012.1 |
| 20260503223501 | 60 | 318 | 0.0 | 0.9 | 0.00 | 0.06 | 0.00 | 90 | 1016.6 |
| 20260503223101 | 60 | 73 | 0.0 | 0.0 | 0.00 | 0.06 | 0.00 | 91 | 1012.0 |
| 20260503223003 | 60 | 73 | 0.0 | 0.0 | 0.00 | 0.06 | 0.00 | 91 | 1016.5 |
| 20260503222600 | 60 | 73 | 0.0 | 0.9 | 0.00 | 0.06 | 0.00 | 91 | 1012.0 |
| 20260503222501 | 60 | 73 | 0.0 | 0.9 | 0.00 | 0.06 | 0.00 | 91 | 1016.5 |
| 20260503222101 | 60 | 74 | 0.0 | 0.9 | 0.00 | 0.06 | 0.00 | 91 | 1012.1 |
| 20260503222003 | 60 | 74 | 0.0 | 0.9 | 0.00 | 0.06 | 0.00 | 90 | 1016.6 |
| 20260503221601 | 60 | 92 | 0.0 | 0.9 | 0.00 | 0.06 | 0.00 | 91 | 1012.2 |
| 20260503221501 | 60 | 93 | 0.0 | 0.9 | 0.00 | 0.06 | 0.00 | 91 | 1016.7 |
| 20260503221103 | 60 | 93 | 0.0 | 0.9 | 0.00 | 0.06 | 0.00 | 91 | 1012.2 |
| 20260503221002 | 60 | 93 | 0.0 | 0.9 | 0.00 | 0.06 | 0.00 | 91 | 1016.7 |
| 20260503220600 | 60 | 139 | 0.0 | 0.9 | 0.00 | 0.06 | 0.00 | 90 | 1012.2 |
| 20260503220501 | 60 | 137 | 0.0 | 0.9 | 0.00 | 0.06 | 0.00 | 90 | 1016.7 |
| 20260503220103 | 60 | 108 | 0.0 | 0.0 | 0.00 | 0.06 | 0.00 | 91 | 1012.2 |
| 20260503220004 | 60 | 108 | 0.0 | 0.0 | 0.00 | 0.06 | 0.00 | 91 | 1012.2 |
| 20260503215600 | 60 | 108 | 0.0 | 0.9 | 0.00 | 0.06 | 0.06 | 91 | 1012.2 |
| 20260503215501 | 60 | 109 | 0.0 | 0.9 | 0.00 | 0.06 | 0.06 | 91 | 1016.7 |
| 20260503215100 | 60 | 107 | 0.0 | 1.7 | 0.00 | 0.06 | 0.06 | 91 | 1012.2 |
| 20260503214609 | 60 | 113 | 0.0 | 1.7 | 0.00 | 0.06 | 0.06 | 91 | 1012.1 |
| 20260503214501 | 60 | 104 | 0.0 | 0.9 | 0.00 | 0.06 | 0.06 | 91 | 1016.7 |
| 20260503214100 | 60 | 181 | 0.0 | 1.7 | 0.00 | 0.06 | 0.06 | 91 | 1012.2 |
| 20260503214004 | 60 | 181 | 0.9 | 1.7 | 0.00 | 0.06 | 0.06 | 91 | 1016.7 |
| 20260503213600 | 60 | 107 | 0.0 | 1.7 | 0.00 | 0.06 | 0.06 | 91 | 1012.2 |
| 20260503213103 | 61 | 108 | 0.0 | 1.7 | 0.00 | 0.06 | 0.06 | 91 | 1012.2 |
| 20260503213002 | 61 | 108 | 0.0 | 1.7 | 0.00 | 0.06 | 0.06 | 91 | 1016.8 |
| 20260503212600 | 61 | 169 | 0.0 | 1.7 | 0.00 | 0.06 | 0.06 | 90 | 1012.1 |
| 20260503212103 | 61 | 136 | 0.9 | 1.7 | 0.00 | 0.06 | 0.06 | 90 | 1012.0 |
| 20260503211606 | 61 | 86 | 0.0 | 1.7 | 0.00 | 0.06 | 0.06 | 91 | 1012.1 |
| 20260503211503 | 61 | 124 | 0.9 | 1.7 | 0.00 | 0.06 | 0.06 | 90 | 1016.6 |
| 20260503211100 | 61 | 77 | 0.0 | 1.7 | 0.00 | 0.06 | 0.06 | 90 | 1012.1 |
| 20260503211002 | 61 | 88 | 0.0 | 1.7 | 0.00 | 0.06 | 0.06 | 90 | 1016.6 |
| 20260503210600 | 61 | 69 | 0.0 | 0.9 | 0.00 | 0.06 | 0.06 | 90 | 1012.1 |
| 20260503210501 | 61 | 84 | 0.0 | 0.9 | 0.00 | 0.06 | 0.06 | 90 | 1016.6 |
| 20260503210100 | 61 | 93 | 0.0 | 0.9 | 0.00 | 0.06 | 0.06 | 90 | 1012.1 |
| 20260503210006 | 61 | 90 | 0.9 | 0.9 | 0.00 | 0.06 | 0.06 | 90 | 1016.6 |
| 20260503210004 | 61 | 90 | 0.0 | 0.9 | 0.00 | 0.06 | 0.06 | 90 | 1012.1 |
| 20260503205600 | 61 | 78 | 0.0 | 0.9 | 0.00 | 0.06 | 0.06 | 90 | 1012.2 |
| 20260503205502 | 61 | 77 | 0.0 | 0.9 | 0.00 | 0.06 | 0.06 | 90 | 1016.7 |
| 20260503205101 | 61 | 125 | 0.0 | 0.9 | 0.00 | 0.06 | 0.06 | 90 | 1012.3 |
| 20260503205002 | 61 | 125 | 0.0 | 0.9 | 0.00 | 0.06 | 0.06 | 90 | 1016.8 |
| 20260503204502 | 61 | 125 | 0.0 | 0.9 | 0.01 | 0.06 | 0.06 | 90 | 1016.8 |
| 20260503204100 | 61 | 285 | 0.0 | 1.7 | 0.01 | 0.06 | 0.06 | 90 | 1012.3 |
| 20260503204002 | 61 | 285 | 0.0 | 1.7 | 0.01 | 0.06 | 0.06 | 90 | 1016.8 |
| 20260503203600 | 61 | 284 | 0.0 | 2.6 | 0.01 | 0.06 | 0.06 | 90 | 1012.3 |
| 20260503203502 | 61 | 283 | 0.9 | 2.6 | 0.01 | 0.06 | 0.06 | 90 | 1016.8 |
| 20260503203106 | 61 | 278 | 0.0 | 2.6 | 0.02 | 0.06 | 0.06 | 90 | 1012.2 |
| 20260503203002 | 61 | 278 | 0.9 | 2.6 | 0.02 | 0.06 | 0.06 | 90 | 1016.8 |
| 20260503202601 | 61 | 297 | 0.0 | 1.7 | 0.02 | 0.06 | 0.06 | 90 | 1012.3 |
| 20260503202501 | 61 | 311 | 0.9 | 1.7 | 0.02 | 0.06 | 0.06 | 90 | 1016.7 |
| 20260503202100 | 61 | 245 | 0.0 | 1.7 | 0.02 | 0.06 | 0.06 | 90 | 1012.3 |
| 20260503202003 | 61 | 244 | 0.0 | 1.7 | 0.02 | 0.06 | 0.06 | 90 | 1016.8 |
| 20260503201601 | 61 | 300 | 0.0 | 1.7 | 0.02 | 0.06 | 0.06 | 90 | 1012.2 |
| 20260503201501 | 61 | 301 | 0.0 | 1.7 | 0.02 | 0.06 | 0.06 | 90 | 1016.7 |
| 20260503201103 | 61 | 344 | 0.0 | 2.6 | 0.02 | 0.06 | 0.06 | 90 | 1012.0 |
| 20260503201003 | 61 | 344 | 0.9 | 2.6 | 0.02 | 0.06 | 0.06 | 90 | 1016.5 |
| 20260503200600 | 61 | 257 | 0.9 | 2.6 | 0.02 | 0.06 | 0.06 | 90 | 1012.0 |
| 20260503200100 | 61 | 295 | 0.9 | 2.6 | 0.02 | 0.06 | 0.06 | 90 | 1012.0 |
| 20260503200005 | 61 | 293 | 0.9 | 2.6 | 0.03 | 0.06 | 0.06 | 90 | 1016.5 |
| 20260503200003 | 61 | 293 | 0.9 | 2.6 | 0.03 | 0.06 | 0.06 | 90 | 1012.0 |
| 20260503195601 | 61 | 335 | 0.0 | 0.9 | 0.03 | 0.07 | 0.06 | 90 | 1011.9 |
| 20260503195100 | 62 | 336 | 0.0 | 0.0 | 0.04 | 0.07 | 0.06 | 90 | 1011.8 |
| 20260503195001 | 62 | 336 | 0.0 | 0.9 | 0.04 | 0.07 | 0.06 | 90 | 1016.4 |
| 20260503194601 | 62 | 271 | 0.0 | 0.9 | 0.03 | 0.06 | 0.06 | 90 | 1011.9 |
| 20260503194501 | 62 | 271 | 0.0 | 0.9 | 0.03 | 0.06 | 0.06 | 90 | 1016.4 |
| 20260503194100 | 62 | 271 | 0.0 | 1.7 | 0.03 | 0.06 | 0.06 | 90 | 1011.8 |
| 20260503193600 | 62 | 280 | 0.0 | 1.7 | 0.03 | 0.06 | 0.06 | 89 | 1011.8 |
| 20260503193101 | 62 | 271 | 0.0 | 3.5 | 0.02 | 0.06 | 0.05 | 89 | 1011.8 |
| 20260503193001 | 62 | 293 | 1.7 | 3.5 | 0.02 | 0.06 | 0.05 | 89 | 1016.2 |
| 20260503192600 | 62 | 297 | 1.7 | 5.2 | 0.02 | 0.06 | 0.05 | 89 | 1011.7 |
| 20260503192501 | 62 | 283 | 2.6 | 5.2 | 0.02 | 0.06 | 0.05 | 89 | 1016.3 |
| 20260503192100 | 62 | 276 | 1.7 | 5.2 | 0.02 | 0.06 | 0.05 | 88 | 1011.7 |
| 20260503192001 | 62 | 305 | 2.6 | 5.2 | 0.02 | 0.06 | 0.05 | 88 | 1016.2 |
| 20260503191601 | 62 | 287 | 1.7 | 6.1 | 0.02 | 0.06 | 0.05 | 88 | 1011.7 |
| 20260503191501 | 62 | 289 | 1.7 | 6.1 | 0.02 | 0.06 | 0.05 | 88 | 1016.1 |
| 20260503191101 | 62 | 212 | 1.7 | 6.1 | 0.02 | 0.06 | 0.05 | 87 | 1011.5 |
| 20260503191001 | 62 | 296 | 1.7 | 6.1 | 0.02 | 0.06 | 0.05 | 87 | 1016.0 |
| 20260503190605 | 62 | 257 | 0.9 | 3.5 | 0.02 | 0.05 | 0.04 | 86 | 1011.5 |
| 20260503190501 | 63 | 252 | 0.9 | 3.5 | 0.02 | 0.05 | 0.04 | 86 | 1016.0 |
| 20260503190101 | 63 | 236 | 0.9 | 4.3 | 0.01 | 0.04 | 0.03 | 86 | 1011.4 |
| 20260503190005 | 63 | 286 | 0.9 | 4.3 | 0.01 | 0.04 | 0.03 | 85 | 1015.9 |
| 20260503185601 | 63 | 188 | 0.9 | 4.3 | 0.02 | 0.05 | 0.03 | 85 | 1011.4 |
| 20260503185503 | 63 | 273 | 0.9 | 4.3 | 0.01 | 0.04 | 0.02 | 85 | 1015.9 |
| 20260503185100 | 63 | 262 | 0.9 | 2.6 | 0.01 | 0.04 | 0.02 | 85 | 1011.2 |
| 20260503185001 | 64 | 285 | 0.0 | 2.6 | 0.01 | 0.04 | 0.02 | 85 | 1015.7 |
| 20260503184609 | 64 | 214 | 0.0 | 0.9 | 0.01 | 0.04 | 0.02 | 85 | 1011.0 |
| 20260503184501 | 64 | 214 | 0.0 | 0.9 | 0.01 | 0.04 | 0.02 | 85 | 1015.5 |
| 20260503184100 | 64 | 214 | 0.0 | 1.7 | 0.01 | 0.04 | 0.02 | 84 | 1011.0 |
| 20260503184001 | 64 | 214 | 0.0 | 1.7 | 0.01 | 0.04 | 0.02 | 84 | 1015.5 |
| 20260503183600 | 64 | 70 | 0.0 | 1.7 | 0.01 | 0.04 | 0.02 | 84 | 1010.9 |
| 20260503183503 | 63 | 70 | 0.0 | 1.7 | 0.01 | 0.04 | 0.02 | 85 | 1015.4 |
| 20260503183103 | 63 | 66 | 0.0 | 1.7 | 0.01 | 0.04 | 0.02 | 85 | 1010.8 |
| 20260503183001 | 63 | 32 | 0.0 | 1.7 | 0.01 | 0.04 | 0.02 | 85 | 1015.3 |
| 20260503182603 | 63 | 322 | 0.0 | 1.7 | 0.01 | 0.04 | 0.02 | 84 | 1010.8 |
| 20260503182501 | 63 | 322 | 0.0 | 1.7 | 0.01 | 0.04 | 0.02 | 84 | 1015.3 |
| 20260503182100 | 63 | 346 | 0.0 | 4.3 | 0.01 | 0.04 | 0.02 | 84 | 1010.8 |
| 20260503182002 | 63 | 346 | 0.9 | 4.3 | 0.01 | 0.04 | 0.02 | 84 | 1015.3 |
| 20260503181603 | 64 | 14 | 0.0 | 4.3 | 0.01 | 0.04 | 0.02 | 83 | 1010.7 |
| 20260503181100 | 64 | 43 | 0.0 | 5.2 | 0.01 | 0.04 | 0.02 | 82 | 1010.8 |
| 20260503181001 | 64 | 75 | 1.7 | 5.2 | 0.01 | 0.04 | 0.02 | 81 | 1015.3 |
| 20260503180601 | 64 | 108 | 1.7 | 5.2 | 0.01 | 0.04 | 0.02 | 81 | 1010.6 |
| 20260503180504 | 64 | 68 | 2.6 | 5.2 | 0.01 | 0.04 | 0.02 | 81 | 1015.2 |
| 20260503180501 | 64 | 68 | 2.6 | 5.2 | 0.01 | 0.04 | 0.02 | 81 | 1010.6 |
| 20260503180005 | 65 | 83 | 2.6 | 4.3 | 0.00 | 0.03 | 0.02 | 80 | 1015.1 |
| 20260503180003 | 65 | 83 | 1.7 | 4.3 | 0.00 | 0.03 | 0.02 | 80 | 1010.6 |
| 20260503175600 | 65 | 86 | 1.7 | 4.3 | 0.00 | 0.03 | 0.02 | 79 | 1010.6 |
| 20260503175501 | 65 | 89 | 1.7 | 4.3 | 0.00 | 0.03 | 0.02 | 78 | 1015.1 |
| 20260503175100 | 65 | 68 | 1.7 | 4.3 | 0.00 | 0.03 | 0.02 | 78 | 1010.5 |
| 20260503175001 | 66 | 94 | 1.7 | 4.3 | 0.00 | 0.03 | 0.02 | 78 | 1015.0 |
| 20260503174620 | 66 | 167 | 0.9 | 3.5 | 0.00 | 0.03 | 0.02 | 78 | 1010.4 |
| 20260503174501 | 66 | 85 | 0.9 | 3.5 | 0.00 | 0.03 | 0.02 | 78 | 1014.9 |
| 20260503174100 | 66 | 64 | 0.9 | 1.7 | 0.00 | 0.03 | 0.02 | 78 | 1010.2 |
| 20260503174003 | 66 | 108 | 0.9 | 1.7 | 0.00 | 0.03 | 0.02 | 78 | 1014.7 |
| 20260503173600 | 66 | 92 | 0.9 | 1.7 | 0.00 | 0.03 | 0.02 | 77 | 1010.3 |
| 20260503173501 | 66 | 49 | 0.9 | 1.7 | 0.00 | 0.03 | 0.02 | 77 | 1014.8 |
| 20260503173107 | 66 | 78 | 0.0 | 1.7 | 0.00 | 0.03 | 0.02 | 77 | 1010.3 |
| 20260503173001 | 66 | 71 | 0.0 | 1.7 | 0.00 | 0.03 | 0.02 | 76 | 1014.8 |
| 20260503172601 | 66 | 76 | 0.0 | 0.9 | 0.00 | 0.03 | 0.02 | 77 | 1010.4 |
| 20260503172501 | 66 | 76 | 0.0 | 0.9 | 0.00 | 0.03 | 0.02 | 77 | 1014.9 |
| 20260503172100 | 66 | 72 | 0.0 | 1.7 | 0.00 | 0.03 | 0.02 | 76 | 1010.3 |
| 20260503172003 | 66 | 74 | 0.0 | 1.7 | 0.00 | 0.03 | 0.02 | 76 | 1014.9 |
| 20260503171604 | 66 | 70 | 0.9 | 3.5 | 0.00 | 0.03 | 0.02 | 75 | 1010.3 |
| 20260503171501 | 66 | 65 | 0.9 | 3.5 | 0.00 | 0.03 | 0.02 | 76 | 1014.9 |
| 20260503171103 | 66 | 60 | 0.9 | 3.5 | 0.00 | 0.03 | 0.02 | 76 | 1010.4 |
| 20260503171001 | 66 | 103 | 0.9 | 3.5 | 0.00 | 0.03 | 0.02 | 75 | 1014.9 |
| 20260503170600 | 66 | 75 | 0.9 | 2.6 | 0.00 | 0.03 | 0.02 | 75 | 1010.4 |
| 20260503160115 | 65 | 60 | 3.5 | 7.8 | 0.00 | 0.07 | 0.02 | 73 | 1010.5 |
| 20260503151001 | 63 | 76 | 3.5 | 7.8 | 0.00 | 0.07 | 0.02 | 77 | 1016.0 |
| 20260503150600 | 62 | 68 | 1.7 | 4.3 | 0.00 | 0.07 | 0.02 | 78 | 1011.6 |
| 20260503150105 | 62 | 63 | 2.6 | 4.3 | 0.00 | 0.07 | 0.02 | 77 | 1011.8 |
| 20260503140109 | 61 | 319 | 0.0 | 5.2 | 0.02 | 0.07 | 0.02 | 84 | 1012.8 |
| 20260503131100 | 63 | 58 | 5.2 | 16.5 | 0.00 | 0.06 | 0.00 | 78 | 1013.3 |
| 20260503131003 | 63 | 295 | 7.0 | 16.5 | 0.00 | 0.06 | 0.00 | 78 | 1017.7 |
| 20260503130600 | 64 | 269 | 5.2 | 16.5 | 0.00 | 0.06 | 0.00 | 74 | 1013.1 |
| 20260503130501 | 65 | 286 | 5.2 | 16.5 | 0.00 | 0.06 | 0.00 | 72 | 1017.6 |
| 20260503110600 | 71 | 114 | 3.5 | 6.1 | 0.00 | 0.09 | 0.00 | 60 | 1012.8 |
| 20260503110501 | 71 | 150 | 1.7 | 7.0 | 0.00 | 0.09 | 0.00 | 60 | 1012.7 |
| 20260503100130 | 69 | 304 | 0.0 | 3.5 | 0.00 | 0.09 | 0.00 | 75 | 1013.1 |
| 20260503090501 | 64 | 333 | 1.7 | 4.3 | 0.00 | 0.09 | 0.00 | 83 | 1018.0 |
| 20260503081608 | 63 | 84 | 0.0 | 2.6 | 0.00 | 0.09 | 0.00 | 84 | 1013.4 |
| 20260503081503 | 63 | 75 | 0.9 | 2.6 | 0.00 | 0.09 | 0.00 | 85 | 1018.0 |
| 20260503081100 | 63 | 68 | 0.0 | 1.7 | 0.00 | 0.09 | 0.00 | 85 | 1013.4 |
| 20260503081001 | 63 | 74 | 0.0 | 1.7 | 0.00 | 0.09 | 0.00 | 85 | 1018.0 |
| 20260503080601 | 63 | 75 | 0.0 | 0.9 | 0.00 | 0.09 | 0.00 | 87 | 1013.5 |
| 20260503080501 | 63 | 72 | 0.0 | 0.9 | 0.00 | 0.09 | 0.00 | 87 | 1018.1 |
| 20260503072600 | 62 | 287 | 0.0 | 0.9 | 0.00 | 0.09 | 0.00 | 90 | 1013.6 |
| 20260503072501 | 62 | 287 | 0.0 | 1.7 | 0.00 | 0.09 | 0.00 | 90 | 1018.1 |
| 20260503072100 | 61 | 288 | 0.0 | 1.7 | 0.00 | 0.09 | 0.00 | 90 | 1013.5 |
| 20260503072001 | 61 | 288 | 0.0 | 1.7 | 0.00 | 0.09 | 0.00 | 90 | 1018.0 |
| 20260503071600 | 61 | 285 | 0.0 | 1.7 | 0.00 | 0.09 | 0.00 | 90 | 1013.6 |
| 20260503071503 | 61 | 284 | 0.0 | 1.7 | 0.00 | 0.09 | 0.00 | 90 | 1018.1 |
| 20260503071101 | 61 | 355 | 0.0 | 0.9 | 0.00 | 0.09 | 0.00 | 90 | 1013.7 |
| 20260503071001 | 61 | 349 | 0.0 | 0.9 | 0.00 | 0.09 | 0.00 | 90 | 1018.2 |
| 20260503070601 | 61 | 349 | 0.0 | 0.9 | 0.00 | 0.09 | 0.00 | 90 | 1013.7 |
| 20260503070501 | 61 | 349 | 0.0 | 0.9 | 0.00 | 0.09 | 0.00 | 90 | 1018.2 |
| 20260503070103 | 61 | 65 | 0.0 | 1.7 | 0.00 | 0.09 | 0.00 | 90 | 1013.6 |
| 20260503055100 | 58 | 79 | 0.0 | 1.7 | 0.00 | 0.09 | 0.00 | 92 | 1013.3 |
| 20260503055001 | 58 | 87 | 0.9 | 1.7 | 0.00 | 0.09 | 0.00 | 92 | 1017.9 |
| 20260503054600 | 58 | 79 | 0.0 | 0.9 | 0.00 | 0.09 | 0.00 | 92 | 1013.3 |
| 20260503054100 | 58 | 77 | 0.0 | 0.9 | 0.00 | 0.09 | 0.00 | 92 | 1013.2 |
| 20260503053600 | 58 | 125 | 0.0 | 0.9 | 0.00 | 0.09 | 0.00 | 92 | 1013.2 |
| 20260503053503 | 58 | 146 | 0.0 | 0.9 | 0.00 | 0.09 | 0.00 | 92 | 1017.7 |
| 20260503053100 | 58 | 140 | 0.0 | 0.9 | 0.00 | 0.09 | 0.00 | 92 | 1013.2 |
| 20260503053004 | 58 | 140 | 0.0 | 0.9 | 0.00 | 0.09 | 0.00 | 92 | 1017.8 |
| 20260503052600 | 58 | 163 | 0.0 | 0.9 | 0.00 | 0.09 | 0.00 | 92 | 1013.3 |
| 20260503052501 | 58 | 163 | 0.0 | 0.9 | 0.00 | 0.09 | 0.00 | 92 | 1017.8 |
| 20260503052059 | 58 | 77 | 0.0 | 0.9 | 0.00 | 0.09 | 0.00 | 92 | 1013.2 |
| 20260503052001 | 58 | 77 | 0.0 | 0.9 | 0.00 | 0.09 | 0.00 | 92 | 1017.7 |
| 20260503051600 | 58 | 69 | 0.0 | 0.9 | 0.00 | 0.09 | 0.00 | 92 | 1013.2 |
| 20260503051501 | 58 | 69 | 0.0 | 0.9 | 0.00 | 0.09 | 0.00 | 92 | 1017.7 |
| 20260503051100 | 59 | 68 | 0.0 | 1.7 | 0.00 | 0.09 | 0.00 | 92 | 1013.1 |
| 20260503051002 | 59 | 68 | 0.0 | 1.7 | 0.00 | 0.09 | 0.00 | 92 | 1017.6 |
| 20260503050600 | 59 | 68 | 0.0 | 1.7 | 0.00 | 0.09 | 0.00 | 92 | 1013.1 |
| 20260503050005 | 59 | 131 | 0.0 | 1.7 | 0.00 | 0.09 | 0.00 | 92 | 1017.6 |
| 20260503050002 | 59 | 131 | 0.0 | 1.7 | 0.00 | 0.09 | 0.00 | 92 | 1013.0 |
| 20260503045603 | 59 | 243 | 0.0 | 1.7 | 0.00 | 0.09 | 0.00 | 92 | 1013.1 |
| 20260503045100 | 59 | 79 | 0.0 | 1.7 | 0.00 | 0.09 | 0.00 | 92 | 1013.1 |
| 20260503044600 | 59 | 77 | 0.0 | 0.9 | 0.00 | 0.09 | 0.00 | 92 | 1013.1 |
| 20260503044501 | 59 | 251 | 0.0 | 0.0 | 0.00 | 0.09 | 0.00 | 92 | 1017.7 |
| 20260503044103 | 59 | 251 | 0.0 | 0.0 | 0.00 | 0.09 | 0.00 | 92 | 1013.1 |
| 20260503044001 | 59 | 251 | 0.0 | 0.0 | 0.00 | 0.09 | 0.00 | 92 | 1017.6 |
| 20260503043600 | 59 | 251 | 0.0 | 0.0 | 0.00 | 0.09 | 0.00 | 92 | 1013.1 |
| 20260503043501 | 59 | 251 | 0.0 | 0.0 | 0.00 | 0.09 | 0.00 | 92 | 1017.6 |
| 20260503043117 | 59 | 252 | 0.0 | 0.9 | 0.00 | 0.09 | 0.00 | 92 | 1013.1 |
| 20260503043003 | 59 | 252 | 0.0 | 0.9 | 0.00 | 0.09 | 0.00 | 92 | 1017.6 |
| 20260503042600 | 59 | 250 | 0.0 | 0.9 | 0.00 | 0.09 | 0.00 | 92 | 1013.2 |
| 20260503042501 | 59 | 250 | 0.0 | 1.7 | 0.00 | 0.09 | 0.00 | 92 | 1017.8 |
| 20260503042100 | 60 | 232 | 0.0 | 1.7 | 0.00 | 0.09 | 0.00 | 92 | 1013.3 |
| 20260503042001 | 60 | 266 | 0.9 | 1.7 | 0.00 | 0.09 | 0.00 | 92 | 1017.8 |
| 20260503041600 | 60 | 261 | 0.0 | 1.7 | 0.00 | 0.09 | 0.00 | 92 | 1013.2 |
| 20260503041100 | 60 | 278 | 0.0 | 2.6 | 0.00 | 0.09 | 0.00 | 92 | 1013.3 |
| 20260503041003 | 60 | 288 | 0.9 | 2.6 | 0.00 | 0.09 | 0.00 | 92 | 1017.8 |
| 20260503040600 | 60 | 261 | 0.0 | 2.6 | 0.00 | 0.09 | 0.00 | 92 | 1013.3 |
| 20260503040501 | 60 | 275 | 0.9 | 2.6 | 0.00 | 0.09 | 0.00 | 92 | 1017.8 |
| 20260503040105 | 60 | 288 | 0.0 | 2.6 | 0.00 | 0.09 | 0.00 | 92 | 1013.2 |
| 20260503040004 | 60 | 288 | 0.0 | 1.7 | 0.00 | 0.09 | 0.00 | 92 | 1013.2 |
| 20260503035600 | 60 | 288 | 0.0 | 1.7 | 0.00 | 0.09 | 0.00 | 92 | 1013.2 |
| 20260503035501 | 60 | 297 | 0.9 | 1.7 | 0.00 | 0.09 | 0.00 | 92 | 1017.7 |
| 20260503035100 | 60 | 311 | 0.0 | 3.5 | 0.00 | 0.09 | 0.00 | 92 | 1013.2 |
| 20260503035001 | 60 | 306 | 0.9 | 3.5 | 0.00 | 0.09 | 0.00 | 92 | 1017.8 |
| 20260503034612 | 60 | 327 | 0.9 | 5.2 | 0.00 | 0.09 | 0.00 | 92 | 1013.2 |
| 20260503034501 | 60 | 324 | 1.7 | 5.2 | 0.00 | 0.09 | 0.00 | 92 | 1017.7 |
| 20260503034101 | 60 | 285 | 0.9 | 5.2 | 0.00 | 0.09 | 0.00 | 92 | 1013.2 |
| 20260503034002 | 60 | 307 | 0.9 | 5.2 | 0.00 | 0.09 | 0.00 | 92 | 1017.7 |
| 20260503033559 | 60 | 333 | 0.9 | 2.6 | 0.00 | 0.09 | 0.00 | 92 | 1013.2 |
| 20260503033501 | 60 | 319 | 0.9 | 2.6 | 0.00 | 0.09 | 0.00 | 92 | 1017.8 |
| 20260503033100 | 60 | 333 | 0.0 | 2.6 | 0.00 | 0.09 | 0.00 | 92 | 1013.2 |
| 20260503032601 | 60 | 327 | 0.9 | 2.6 | 0.00 | 0.09 | 0.00 | 92 | 1013.1 |
| 20260503032104 | 60 | 347 | 0.0 | 1.7 | 0.00 | 0.09 | 0.00 | 92 | 1013.2 |
| 20260503032004 | 60 | 328 | 0.0 | 1.7 | 0.00 | 0.09 | 0.00 | 92 | 1017.7 |
| 20260503031600 | 60 | 324 | 0.0 | 1.7 | 0.00 | 0.09 | 0.00 | 92 | 1013.2 |
| 20260503031501 | 60 | 325 | 0.0 | 1.7 | 0.00 | 0.09 | 0.00 | 92 | 1017.8 |
| 20260503031100 | 60 | 322 | 0.0 | 1.7 | 0.00 | 0.09 | 0.00 | 92 | 1013.3 |
| 20260503031001 | 60 | 300 | 0.0 | 1.7 | 0.00 | 0.09 | 0.00 | 92 | 1017.8 |
| 20260503030600 | 60 | 289 | 0.0 | 1.7 | 0.00 | 0.09 | 0.00 | 92 | 1013.3 |
| 20260503030501 | 60 | 307 | 0.9 | 1.7 | 0.00 | 0.09 | 0.00 | 92 | 1017.9 |
| 20260503030100 | 60 | 302 | 0.0 | 2.6 | 0.00 | 0.09 | 0.00 | 92 | 1013.4 |
| 20260503030006 | 60 | 300 | 0.9 | 2.6 | 0.00 | 0.09 | 0.00 | 92 | 1017.9 |
| 20260503030004 | 60 | 300 | 0.9 | 2.6 | 0.00 | 0.09 | 0.00 | 92 | 1013.4 |
| 20260503025600 | 60 | 295 | 0.9 | 3.5 | 0.00 | 0.09 | 0.00 | 92 | 1013.5 |
| 20260503025501 | 60 | 297 | 1.7 | 3.5 | 0.00 | 0.09 | 0.00 | 92 | 1018.0 |
| 20260503025100 | 60 | 284 | 0.9 | 3.5 | 0.00 | 0.09 | 0.00 | 92 | 1013.5 |
| 20260503024600 | 60 | 281 | 0.9 | 2.6 | 0.00 | 0.09 | 0.00 | 92 | 1013.5 |
| 20260503024502 | 60 | 269 | 0.9 | 2.6 | 0.00 | 0.09 | 0.00 | 92 | 1018.1 |
| 20260503024103 | 60 | 286 | 0.0 | 2.6 | 0.00 | 0.09 | 0.00 | 92 | 1013.4 |
| 20260503024001 | 60 | 281 | 0.9 | 2.6 | 0.00 | 0.09 | 0.00 | 92 | 1018.0 |
| 20260503023559 | 60 | 282 | 0.9 | 2.6 | 0.00 | 0.09 | 0.00 | 92 | 1013.5 |
| 20260503023501 | 60 | 301 | 0.9 | 2.6 | 0.00 | 0.09 | 0.00 | 92 | 1018.0 |
| 20260503023100 | 60 | 330 | 0.0 | 1.7 | 0.00 | 0.09 | 0.00 | 92 | 1013.4 |
| 20260503023002 | 60 | 333 | 0.9 | 1.7 | 0.00 | 0.09 | 0.00 | 92 | 1018.0 |
| 20260503022601 | 60 | 355 | 0.0 | 1.7 | 0.00 | 0.09 | 0.00 | 92 | 1013.4 |
| 20260503022501 | 60 | 318 | 0.9 | 1.7 | 0.00 | 0.09 | 0.00 | 92 | 1018.0 |
| 20260503022100 | 60 | 278 | 0.0 | 1.7 | 0.00 | 0.09 | 0.00 | 92 | 1013.5 |
| 20260503022003 | 60 | 277 | 0.9 | 1.7 | 0.00 | 0.09 | 0.00 | 92 | 1018.0 |
| 20260503021600 | 60 | 347 | 0.0 | 2.6 | 0.00 | 0.09 | 0.00 | 91 | 1013.6 |
| 20260503021100 | 60 | 277 | 0.0 | 2.6 | 0.00 | 0.09 | 0.00 | 92 | 1013.6 |
| 20260503021001 | 60 | 327 | 0.9 | 2.6 | 0.00 | 0.09 | 0.00 | 92 | 1018.2 |
| 20260503020600 | 60 | 339 | 0.0 | 2.6 | 0.00 | 0.09 | 0.00 | 92 | 1013.6 |
| 20260503020100 | 60 | 326 | 0.9 | 2.6 | 0.00 | 0.09 | 0.00 | 91 | 1013.5 |
| 20260503020007 | 60 | 307 | 0.9 | 2.6 | 0.00 | 0.09 | 0.00 | 91 | 1018.1 |
| 20260503020003 | 60 | 307 | 0.9 | 2.6 | 0.00 | 0.09 | 0.00 | 91 | 1013.5 |
| 20260503015502 | 60 | 319 | 0.9 | 3.5 | 0.00 | 0.09 | 0.00 | 91 | 1013.6 |
| 20260503015002 | 60 | 322 | 1.7 | 3.5 | 0.00 | 0.09 | 0.00 | 91 | 1018.2 |
| 20260503014503 | 60 | 325 | 0.9 | 3.5 | 0.00 | 0.09 | 0.00 | 91 | 1013.7 |
| 20260503014004 | 60 | 337 | 1.7 | 4.3 | 0.00 | 0.09 | 0.00 | 91 | 1018.3 |
| 20260503014001 | 60 | 337 | 0.9 | 4.3 | 0.00 | 0.09 | 0.00 | 91 | 1013.7 |
| 20260503013501 | 60 | 328 | 1.7 | 4.3 | 0.00 | 0.09 | 0.00 | 91 | 1013.7 |
| 20260503013002 | 60 | 333 | 1.7 | 3.5 | 0.00 | 0.09 | 0.00 | 91 | 1018.2 |
| 20260503012503 | 60 | 354 | 0.9 | 2.6 | 0.00 | 0.09 | 0.00 | 91 | 1013.7 |
| 20260503012004 | 60 | 312 | 0.9 | 4.3 | 0.00 | 0.09 | 0.00 | 91 | 1018.4 |
| 20260503012002 | 60 | 312 | 0.9 | 4.3 | 0.00 | 0.09 | 0.00 | 91 | 1013.9 |
| 20260503011502 | 60 | 321 | 0.9 | 4.3 | 0.00 | 0.09 | 0.00 | 91 | 1013.9 |
| 20260503011002 | 60 | 329 | 1.7 | 4.3 | 0.00 | 0.09 | 0.00 | 91 | 1018.4 |
| 20260503010502 | 60 | 307 | 0.9 | 3.5 | 0.00 | 0.09 | 0.00 | 91 | 1013.9 |
| 20260503010005 | 60 | 306 | 1.7 | 4.3 | 0.00 | 0.09 | 0.00 | 90 | 1018.4 |
| 20260503005600 | 60 | 322 | 1.7 | 4.3 | 0.00 | 0.09 | 0.00 | 90 | 1014.0 |
| 20260503005501 | 60 | 327 | 1.7 | 4.3 | 0.00 | 0.09 | 0.00 | 90 | 1018.5 |
| 20260503005100 | 60 | 323 | 0.9 | 3.5 | 0.00 | 0.09 | 0.00 | 90 | 1014.0 |
| 20260503005003 | 60 | 353 | 0.9 | 3.5 | 0.00 | 0.09 | 0.00 | 90 | 1018.5 |
| 20260503004601 | 60 | 301 | 0.9 | 3.5 | 0.00 | 0.09 | 0.00 | 90 | 1014.0 |
| 20260503004501 | 60 | 342 | 0.9 | 3.5 | 0.00 | 0.09 | 0.00 | 90 | 1018.5 |
| 20260503004100 | 60 | 311 | 0.9 | 3.5 | 0.00 | 0.09 | 0.00 | 90 | 1014.0 |
| 20260503003600 | 61 | 294 | 0.9 | 5.2 | 0.00 | 0.09 | 0.00 | 90 | 1014.1 |
| 20260503003501 | 60 | 290 | 1.7 | 5.2 | 0.00 | 0.09 | 0.00 | 89 | 1018.6 |
| 20260503003107 | 61 | 326 | 1.7 | 5.2 | 0.00 | 0.09 | 0.00 | 89 | 1014.0 |
| 20260503003004 | 61 | 292 | 1.7 | 5.2 | 0.00 | 0.09 | 0.00 | 89 | 1018.5 |
| 20260503002600 | 61 | 316 | 0.9 | 5.2 | 0.00 | 0.09 | 0.00 | 89 | 1014.2 |
| 20260503002501 | 61 | 351 | 1.7 | 5.2 | 0.00 | 0.09 | 0.00 | 89 | 1018.6 |
| 20260503002100 | 61 | 360 | 0.9 | 5.2 | 0.00 | 0.09 | 0.00 | 89 | 1014.1 |
| 20260503001613 | 61 | 13 | 1.7 | 5.2 | 0.00 | 0.09 | 0.00 | 89 | 1014.2 |
| 20260503001501 | 61 | 359 | 1.7 | 5.2 | 0.00 | 0.09 | 0.00 | 89 | 1018.8 |
| 20260503001100 | 61 | 293 | 0.9 | 4.3 | 0.00 | 0.09 | 0.00 | 88 | 1014.2 |
| 20260503001003 | 61 | 339 | 1.7 | 4.3 | 0.00 | 0.09 | 0.00 | 88 | 1018.8 |
| 20260503000503 | 61 | 317 | 0.9 | 5.2 | 0.00 | 0.09 | 0.00 | 88 | 1014.4 |
| 20260503000005 | 62 | 302 | 1.7 | 5.2 | 0.00 | 0.09 | 0.00 | 87 | 1018.8 |
| 20260503000003 | 62 | 302 | 1.7 | 5.2 | 0.00 | 0.09 | 0.00 | 87 | 1014.3 |
| 20260502235503 | 62 | 342 | 2.6 | 8.7 | 0.00 | 0.09 | 0.00 | 86 | 1018.8 |
| 20260502235004 | 62 | 301 | 3.5 | 8.7 | 0.00 | 0.09 | 0.00 | 85 | 1018.7 |
| 20260502235002 | 62 | 301 | 3.5 | 8.7 | 0.00 | 0.09 | 0.00 | 85 | 1014.2 |
| 20260502234502 | 63 | 305 | 2.6 | 6.1 | 0.00 | 0.09 | 0.00 | 81 | 1018.7 |
| 20260502234002 | 63 | 282 | 2.6 | 5.2 | 0.00 | 0.09 | 0.00 | 79 | 1018.8 |
| 20260502233501 | 63 | 306 | 2.6 | 5.2 | 0.00 | 0.09 | 0.00 | 77 | 1014.2 |
| 20260502233004 | 63 | 279 | 1.7 | 5.2 | 0.00 | 0.09 | 0.00 | 75 | 1018.7 |
| 20260502233001 | 63 | 261 | 1.7 | 5.2 | 0.00 | 0.09 | 0.00 | 75 | 1014.2 |
| 20260502232503 | 63 | 253 | 1.7 | 5.2 | 0.00 | 0.09 | 0.00 | 74 | 1018.8 |
| 20260502232501 | 63 | 253 | 1.7 | 5.2 | 0.00 | 0.09 | 0.00 | 74 | 1014.3 |
| 20260502232002 | 63 | 276 | 1.7 | 3.5 | 0.00 | 0.09 | 0.00 | 75 | 1018.8 |
| 20260502231502 | 63 | 288 | 1.7 | 4.3 | 0.00 | 0.09 | 0.00 | 75 | 1018.8 |
| 20260502231003 | 63 | 270 | 0.9 | 4.3 | 0.00 | 0.09 | 0.00 | 75 | 1018.8 |
| 20260502230503 | 63 | 226 | 0.9 | 3.5 | 0.00 | 0.09 | 0.00 | 76 | 1018.7 |
| 20260502230501 | 63 | 226 | 0.0 | 3.5 | 0.00 | 0.09 | 0.00 | 76 | 1014.2 |
| 20260502230004 | 63 | 80 | 0.9 | 5.2 | 0.00 | 0.09 | 0.00 | 76 | 1014.1 |